Weather History for KMRF - March, 2014

Change the Weather History Date:

Friday, March 14, 2014

  Actual Average Record
Temperature  
Mean Temperature 50 °F -  
Max Temperature 71 °F 64 °F 80 °F (2007)
Min Temperature 30 °F 34 °F 24 °F (2006)
Degree Days  
Heating Degree Days 14    
Moisture  
Dew Point 23 °F    
Average Humidity 34    
Maximum Humidity 56    
Minimum Humidity 17    
Precipitation  
Precipitation 0.00 in - - ()
Sea Level Pressure  
Sea Level Pressure 30.03 in    
Wind  
Wind Speed 5 mph (NW)    
Max Wind Speed 13 mph    
Max Gust Speed 18 mph    
Visibility 10 miles    
Events      
Averages and records for this station are not official NWS values.
T = Trace of Precipitation, MM = Missing Value Source: NWS Daily Summary

Daily Weather History Graph

Daily Weather History Graph

Search for Another Location

Airport or City:

Trip Planner

Search our weather history database for the weather conditions in past years. The results will help you decide how hot, cold, wet, or windy it might be!

Date:

Astronomy

Mar. 14, 2014 Rise Set
Actual Time 8:07 AM CDT 8:03 PM CDT
Civil Twilight 7:43 AM CDT 8:27 PM CDT
Nautical Twilight 7:15 AM CDT 8:55 PM CDT
Astronomical Twilight 6:47 AM CDT 9:23 PM CDT
Moon 6:32 PM CDT (3/14) 6:42 AM CDT (3/14)
Length of Visible Light 12h 44m
Length of Day
11h 56m
Waxing Gibbous, 96% of the Moon is Illuminated
Mar 14
Waxing Gibbous
Mar 16
Full
Mar 23
Last Quarter
Mar 30
New
Apr 7
First Quarter

Hourly Weather History & Observations

Time (CDT) Temp. Windchill Dew Point Humidity Pressure Visibility Wind Dir Wind Speed Gust Speed Precip Events Conditions
12:15 AM 39.2 °F - 17.6 °F 42% 30.05 in 10.0 mi Calm Calm - N/A   Clear
12:35 AM 39.2 °F 35.0 °F 15.8 °F 39% 30.05 in 10.0 mi WNW 5.8 mph - N/A   Clear
12:55 AM 37.4 °F 34.9 °F 17.6 °F 45% 30.04 in 10.0 mi NW 3.5 mph - N/A   Clear
1:15 AM 37.4 °F 34.9 °F 15.8 °F 41% 30.04 in 10.0 mi North 3.5 mph - N/A   Clear
1:35 AM 35.6 °F 31.7 °F 15.8 °F 44% 30.04 in 10.0 mi NW 4.6 mph - N/A   Clear
1:55 AM 35.6 °F 31.7 °F 14.0 °F 41% 30.03 in 10.0 mi NW 4.6 mph - N/A   Clear
2:15 AM 35.6 °F 30.7 °F 15.8 °F 44% 30.03 in 10.0 mi NNW 5.8 mph - N/A   Clear
2:35 AM 35.6 °F 30.7 °F 15.8 °F 44% 30.04 in 10.0 mi NNW 5.8 mph - N/A   Clear
2:55 AM 33.8 °F 30.8 °F 12.2 °F 41% 30.03 in 10.0 mi NE 3.5 mph - N/A   Clear
3:15 AM 35.6 °F 30.7 °F 15.8 °F 44% 30.03 in 10.0 mi NNE 5.8 mph - N/A   Clear
3:35 AM 33.8 °F 28.6 °F 14.0 °F 44% 30.02 in 10.0 mi North 5.8 mph - N/A   Clear
3:55 AM 33.8 °F 27.7 °F 15.8 °F 48% 30.02 in 10.0 mi North 6.9 mph - N/A   Clear
4:15 AM 35.6 °F 29.9 °F 15.8 °F 44% 30.01 in 10.0 mi North 6.9 mph - N/A   Clear
4:35 AM 35.6 °F 30.7 °F 17.6 °F 48% 30.00 in 10.0 mi North 5.8 mph - N/A   Clear
4:55 AM 33.8 °F 29.6 °F 15.8 °F 48% 30.00 in 10.0 mi North 4.6 mph - N/A   Clear
5:15 AM 33.8 °F 28.6 °F 15.8 °F 48% 30.00 in 10.0 mi North 5.8 mph - N/A   Clear
5:35 AM 33.8 °F 27.7 °F 15.8 °F 48% 30.00 in 10.0 mi North 6.9 mph - N/A   Clear
5:55 AM 33.8 °F 29.6 °F 17.6 °F 52% 30.01 in 10.0 mi North 4.6 mph - N/A   Clear
6:15 AM 33.8 °F 29.6 °F 17.6 °F 52% 30.01 in 10.0 mi North 4.6 mph - N/A   Clear
6:35 AM 33.8 °F 27.7 °F 17.6 °F 52% 30.01 in 10.0 mi North 6.9 mph - N/A   Clear
6:55 AM 33.8 °F - 17.6 °F 52% 30.01 in 10.0 mi Calm Calm - N/A   Clear
7:15 AM 33.8 °F 30.8 °F 17.6 °F 52% 30.01 in 10.0 mi NNW 3.5 mph - N/A   Clear
7:35 AM 30.2 °F 23.4 °F 15.8 °F 55% 30.02 in 10.0 mi North 6.9 mph - N/A   Clear
7:55 AM 33.8 °F 29.6 °F 19.4 °F 56% 30.02 in 10.0 mi North 4.6 mph - N/A   Clear
8:15 AM 33.8 °F 29.6 °F 17.6 °F 52% 30.03 in 9.0 mi North 4.6 mph - N/A   Clear
8:35 AM 33.8 °F 29.6 °F 19.4 °F 56% 30.04 in 10.0 mi NNE 4.6 mph - N/A   Clear
8:55 AM 37.4 °F 32.8 °F 21.2 °F 52% 30.04 in 10.0 mi NNE 5.8 mph - N/A   Clear
9:15 AM 46.4 °F 45.2 °F 24.8 °F 43% 30.05 in 8.0 mi NNE 3.5 mph - N/A   Clear
9:35 AM 50.0 °F - 24.8 °F 37% 30.07 in 10.0 mi NNE 3.5 mph - N/A   Clear
9:55 AM 53.6 °F - 24.8 °F 33% 30.07 in 10.0 mi NE 3.5 mph - N/A   Clear
10:15 AM 55.4 °F - 26.6 °F 33% 30.08 in 10.0 mi Calm Calm - N/A   Clear
10:35 AM 57.2 °F - 26.6 °F 31% 30.09 in 10.0 mi Calm Calm - N/A   Clear
10:55 AM 59.0 °F - 28.4 °F 31% 30.10 in 10.0 mi SSW 4.6 mph - N/A   Clear
11:15 AM 60.8 °F - 28.4 °F 29% 30.10 in 10.0 mi Calm Calm - N/A   Clear
11:35 AM 62.6 °F - 28.4 °F 27% 30.10 in 10.0 mi South 4.6 mph - N/A   Clear
11:55 AM 64.4 °F - 28.4 °F 26% 30.09 in 10.0 mi SW 3.5 mph - N/A   Clear
12:15 PM 66.2 °F - 30.2 °F 26% 30.09 in 10.0 mi SSW 4.6 mph - N/A   Clear
12:35 PM 69.8 °F - 30.2 °F 23% 30.09 in 10.0 mi NW 4.6 mph - N/A   Clear
12:55 PM 69.8 °F - 30.2 °F 23% 30.09 in 10.0 mi WNW 9.2 mph - N/A   Clear
1:15 PM 69.8 °F - 30.2 °F 23% 30.08 in 10.0 mi West 12.7 mph 17.3 mph N/A   Clear
1:35 PM 71.6 °F - 30.2 °F 22% 30.07 in 10.0 mi WSW 5.8 mph 16.1 mph N/A   Clear
1:55 PM 71.6 °F - 30.2 °F 22% 30.07 in 10.0 mi West 8.1 mph 18.4 mph N/A   Clear
2:15 PM 71.6 °F - 28.4 °F 20% 30.06 in 10.0 mi NW 6.9 mph - N/A   Clear
2:35 PM 71.6 °F - 26.6 °F 19% 30.05 in 10.0 mi WSW 10.4 mph - N/A   Clear
2:55 PM 71.6 °F - 28.4 °F 20% 30.05 in 10.0 mi West 12.7 mph 18.4 mph N/A   Clear
3:15 PM 71.6 °F - 26.6 °F 19% 30.04 in 10.0 mi WSW 5.8 mph - N/A   Clear
3:35 PM 71.6 °F - 26.6 °F 19% 30.03 in 10.0 mi WNW 5.8 mph - N/A   Clear
3:55 PM 71.6 °F - 26.6 °F 19% 30.03 in 10.0 mi West 10.4 mph - N/A   Clear
4:15 PM 71.6 °F - 26.6 °F 19% 30.03 in 10.0 mi West 9.2 mph - N/A   Clear
4:35 PM 71.6 °F - 26.6 °F 19% 30.02 in 10.0 mi West 5.8 mph - N/A   Clear
4:55 PM 71.6 °F - 24.8 °F 17% 30.01 in 10.0 mi WSW 6.9 mph - N/A   Clear
5:15 PM 71.6 °F - 24.8 °F 17% 30.01 in 10.0 mi West 8.1 mph - N/A   Clear
5:35 PM 71.6 °F - 26.6 °F 19% 30.01 in 10.0 mi West 9.2 mph - N/A   Clear
5:55 PM 69.8 °F - 26.6 °F 20% 30.00 in 10.0 mi Calm Calm - N/A   Partly Cloudy
6:15 PM 71.6 °F - 26.6 °F 19% 30.00 in 10.0 mi WNW 8.1 mph - N/A   Partly Cloudy
6:35 PM 69.8 °F - 24.8 °F 18% 30.00 in 10.0 mi West 6.9 mph - N/A   Clear
6:55 PM 69.8 °F - 24.8 °F 18% 30.00 in 10.0 mi West 5.8 mph - N/A   Clear
7:15 PM 69.8 °F - 24.8 °F 18% 30.00 in 10.0 mi West 4.6 mph - N/A   Clear
7:35 PM 68.0 °F - 24.8 °F 20% 30.00 in 10.0 mi West 4.6 mph - N/A   Clear
7:55 PM 66.2 °F - 24.8 °F 21% 30.00 in 10.0 mi Calm Calm - N/A   Clear
8:15 PM 62.6 °F - 23.0 °F 22% 30.00 in 10.0 mi NNW 8.1 mph - N/A   Clear
8:35 PM 62.6 °F - 23.0 °F 22% 30.00 in 10.0 mi ENE 5.8 mph - N/A   Clear
8:55 PM 60.8 °F - 24.8 °F 25% 30.01 in 10.0 mi ENE 5.8 mph - N/A   Clear
9:15 PM 60.8 °F - 26.6 °F 27% 30.01 in 10.0 mi NE 5.8 mph - N/A   Clear
9:35 PM 57.2 °F - 26.6 °F 31% 30.01 in 10.0 mi NE 5.8 mph - N/A   Clear
9:55 PM 57.2 °F - 26.6 °F 31% 30.02 in 10.0 mi ENE 5.8 mph - N/A   Clear
10:15 PM 57.2 °F - 26.6 °F 31% 30.02 in 10.0 mi NE 5.8 mph - N/A   Clear
10:35 PM 53.6 °F - 24.8 °F 33% 30.02 in 10.0 mi NNW 5.8 mph - N/A   Clear
10:55 PM 55.4 °F - 26.6 °F 33% 30.03 in 10.0 mi Calm Calm - N/A   Clear
11:15 PM 53.6 °F - 26.6 °F 35% 30.02 in 10.0 mi Calm Calm - N/A   Clear
11:35 PM 51.8 °F - 24.8 °F 35% 30.02 in 10.0 mi WNW 4.6 mph - N/A   Clear
11:55 PM 51.8 °F - 24.8 °F 35% 30.02 in 10.0 mi NW 8.1 mph - N/A   Clear